Starlink 31001

operational
NORAD ID: 58527 Int'l Des: 2023-191 Owner: SPXS Country: US Constellation: starlink
LEOCIRCULAR

Starlink 31001について

説明を読み込み中...

リアルタイム位置

3D地球を読み込み中...

次回通過

高度履歴

Altitude vs Time

uPlot chart will show altitude changes over time

軌道要素

1 58527U 23191V 25303.84632060 .00001087 00000-0 95517-4 0 9992
2 58527 43.0035 91.0682 0001495 273.4314 86.6358 15.02538054105918
Epoch: Oct 30, 2025 • Age: 17 hours

現在のステータス

高度 559.5 km
速度 7.58 km/s
衛星直下点 -3.80°S, 34.92°E
打ち上げ日 Dec 7, 2023
運用期間 1.9 years
タイプ internet

技術仕様

分類 Payload
質量 730.00 kg
乾燥質量 700.00 kg
総質量 730.00 kg
長さ 0.30 m
直径 4.10 m
スパン 29.00 m
形状 Box + pan
製造者 SPXS
バスタイプ Starlink V2M
フェーズステータス In Orbit
所有者/国 SPXS/US

大規模コンステレーション

Loading constellations...